Tracking 26922 objects as of 1-Feb-2023
HD Live streaming from Space Station
objects crossing your sky now

COSMOS 886 DEB

Track COSMOS 886 DEB now!
10-day predictions


NORAD ID: 9656
Int'l Code: 1976-126N
Perigee: 639.5 km
Apogee: 2,009.7 km
Inclination: 65.8 °
Period: 112.0 minutes
Semi major axis: 7695 km
RCS: 0.0512 m2 (small)
Launch date: December 27, 1976
Source: Commonwealth of Independent States (former USSR) (CIS)
Launch site: TYURATAM MISSILE AND SPACE COMPLEX (TTMTR)

Note: This is SATELLITE DEBRIS
Your satellite tracking list
Your tracking list is empty




NASA's NSSDC Master Catalog

Two Line Element Set (TLE):
1 09656U 76126N   23031.06440702  .00000529  00000-0  40643-3 0  9996
2 09656  65.8202 259.8929 0890250 243.8648 106.8190 12.85992672123321
Source of the keplerian elements: AFSPC